TimeEST,TemperatureF,Dew PointF,Humidity,Sea Level PressureIn,VisibilityMPH,Wind Direction,Wind SpeedMPH,Gust SpeedMPH,PrecipitationIn,Events,Conditions,WindDirDegrees,DateUTC
12:53 AM,70.0,53.1,55,30.20,10.0,NE,13.8,23.0,N/A,,Scattered Clouds,40,2013-01-23 05:53:00
1:53 AM,70.0,52.0,53,30.19,10.0,NE,17.3,24.2,N/A,,Scattered Clouds,50,2013-01-23 06:53:00
2:53 AM,69.1,51.1,53,30.20,10.0,ENE,15.0,20.7,N/A,,Partly Cloudy,70,2013-01-23 07:53:00
3:53 AM,69.1,52.0,54,30.19,10.0,ENE,9.2,19.6,N/A,,Partly Cloudy,60,2013-01-23 08:53:00
4:53 AM,69.1,52.0,54,30.19,10.0,ENE,10.4,-,N/A,,Partly Cloudy,60,2013-01-23 09:53:00
5:53 AM,69.1,51.1,53,30.21,10.0,NE,11.5,-,N/A,,Partly Cloudy,50,2013-01-23 10:53:00
6:53 AM,69.1,51.1,53,30.22,10.0,NE,16.1,-,N/A,,Partly Cloudy,40,2013-01-23 11:53:00
7:53 AM,70.0,48.9,47,30.25,10.0,NE,15.0,-,N/A,,Partly Cloudy,40,2013-01-23 12:53:00
8:53 AM,66.0,54.0,65,30.27,10.0,NNW,4.6,-,N/A,,Scattered Clouds,340,2013-01-23 13:53:00
9:53 AM,71.1,52.0,51,30.29,10.0,NNW,10.4,19.6,N/A,,Partly Cloudy,340,2013-01-23 14:53:00
10:53 AM,73.0,52.0,48,30.29,10.0,North,6.9,-,N/A,,Partly Cloudy,360,2013-01-23 15:53:00
11:53 AM,73.9,51.1,45,30.27,10.0,ENE,12.7,-,N/A,,Partly Cloudy,60,2013-01-23 16:53:00
12:53 PM,73.0,51.1,46,30.25,10.0,ENE,11.5,21.9,N/A,,Partly Cloudy,70,2013-01-23 17:53:00
1:53 PM,73.9,51.1,45,30.23,10.0,ENE,15.0,-,N/A,,Partly Cloudy,70,2013-01-23 18:53:00
2:53 PM,73.0,51.1,46,30.22,10.0,East,13.8,18.4,N/A,,Scattered Clouds,80,2013-01-23 19:53:00
3:53 PM,72.0,50.0,46,30.23,10.0,ENE,10.4,-,N/A,,Scattered Clouds,70,2013-01-23 20:53:00
4:53 PM,71.1,51.1,49,30.24,10.0,ENE,10.4,-,N/A,,Scattered Clouds,60,2013-01-23 21:53:00
5:53 PM,70.0,51.1,51,30.24,10.0,East,10.4,-,N/A,,Partly Cloudy,80,2013-01-23 22:53:00
6:53 PM,70.0,51.1,51,30.25,10.0,ENE,9.2,-,N/A,,Scattered Clouds,60,2013-01-23 23:53:00
7:53 PM,70.0,50.0,49,30.26,10.0,ENE,10.4,-,N/A,,Scattered Clouds,70,2013-01-24 00:53:00
8:53 PM,70.0,50.0,49,30.27,10.0,ENE,6.9,-,N/A,,Scattered Clouds,70,2013-01-24 01:53:00
9:53 PM,66.0,55.0,68,30.28,10.0,NNW,9.2,-,N/A,,Mostly Cloudy,340,2013-01-24 02:53:00
10:53 PM,63.0,55.9,78,30.28,10.0,North,6.9,-,N/A,,Partly Cloudy,350,2013-01-24 03:53:00
11:53 PM,62.1,55.0,78,30.26,10.0,North,6.9,-,N/A,,Partly Cloudy,350,2013-01-24 04:53:00